LEMUR-2-AUSTINTACIOUS

Last updated on Oct. 4, 2018, midnight UTC

1 42068U 98067LD  18276.57796935  .05750731  12379-4  45595-3 0  9990
2 42068  51.6138 125.1133 0009436 273.2644 116.3545 16.39102120 90506

Satellite is not in orbit.